Flag for Mauritania Weather past 2 weeks in Nouakchott, Mauritania

Now
95 °F

Clear.


Feels Like: 92 °F
Forecast: 81 / 94 °F
Wind: 13 mph from Northeast

Location: Nouakchott Airport

Current Time: Oct 1, 2014 at 1:05:17 PM

Latest Report: Oct 1, 2014 at 12:30 PM


Visibility: 4 mi

Pressure: 29.86 "Hg

Humidity: 22%

Dew point: 50 °F

Location of NouakchottLocation

Historic Weather in Nouakchott — Graph

°F

Nouakchott temperature yesterday

Maximum temperature yesterday: 104 °F (at 3:00 PM)
Minimum temperature yesterday: 82 °F (at 11:30 PM)
Average temperature yesterday: 91 °F

Past Weeks' High & Low Weather Summary

 TemperatureHumidityPressure
High111 °F (Sep 28, 2:30 PM)94% (Sep 20, 5:00 AM)30.01 "Hg (Sep 20, 5:00 AM)
Low77 °F (Sep 20, 5:00 AM)8% (Sep 28, 5:30 PM)29.77 "Hg (Sep 18, 4:30 PM)
Average86 °F64%29.87 "Hg
* Reported Sep 16 12:00 Noon — Oct 1 12:00 Noon, Nouakchott, Weather by CustomWeather, © 2014

Note: Actual official high and low records may vary slightly from our data, if they occured in-between our weather recording intervals... More about our weather records

Advertising

Nouakchott weather history for previous 24 hours

 ConditionsComfort  
Time TempWeatherWind HumidityBarometerVisibility
12:00 PM
Oct 1
93 °FClear.12 mph24%29.89 "Hg4 mi
11:30 AM91 °FClear.15 mph26%29.89 "Hg4 mi
11:00 AM90 °FClear.14 mph27%29.92 "Hg4 mi
10:30 AM88 °FClear.15 mph29%29.92 "Hg4 mi
10:00 AM86 °FClear.17 mph33%29.92 "Hg4 mi
9:30 AM82 °FClear.15 mph37%29.92 "Hg4 mi
9:00 AM81 °FClear.14 mph39%29.92 "Hg4 mi
8:30 AM79 °FClear.16 mph39%29.89 "Hg4 mi
8:00 AM77 °FClear.12 mph39%29.89 "Hg4 mi
7:30 AM77 °FClear.10 mph39%29.89 "Hg4 mi
7:00 AM77 °FClear.12 mph36%29.89 "Hg4 mi
6:30 AM77 °FClear.12 mph36%29.86 "Hg4 mi
6:00 AM79 °FClear.10 mph37%29.86 "Hg4 mi
5:30 AM79 °FClear.12 mph34%29.86 "Hg4 mi
5:00 AM79 °FClear.12 mph39%29.86 "Hg4 mi
4:30 AM79 °FClear.10 mph39%29.86 "Hg4 mi
4:00 AM79 °FWarm.9 mph42%29.86 "HgN/A
3:30 AM81 °FClear.10 mph39%29.86 "Hg4 mi
3:00 AM81 °FClear.10 mph37%29.86 "Hg4 mi
2:30 AM81 °FWarm.10 mph42%29.86 "HgN/A
2:00 AM82 °FClear.10 mph42%29.86 "Hg4 mi
1:30 AM82 °FClear.9 mph48%29.86 "Hg4 mi
1:00 AM82 °FClear.9 mph55%29.89 "Hg4 mi
12:30 AM82 °FClear.9 mph55%29.89 "Hg4 mi
12:00 AM82 °FClear.9 mph55%29.89 "Hg4 mi
11:30 PM
Sep 30
82 °FClear.9 mph58%29.89 "Hg4 mi
11:00 PM84 °FClear.9 mph58%29.89 "Hg4 mi
10:30 PM84 °FClear.12 mph66%29.89 "Hg4 mi
10:00 PM84 °FClear.10 mph66%29.86 "Hg4 mi
9:30 PM84 °FClear.10 mph66%29.86 "Hg4 mi
9:00 PM84 °FClear.12 mph62%29.86 "Hg4 mi
8:30 PM86 °FClear.12 mph59%29.86 "Hg4 mi
8:00 PM86 °FClear.10 mph55%29.83 "Hg4 mi
7:30 PM88 °FClear.13 mph52%29.83 "Hg4 mi
7:00 PM88 °FClear.13 mph52%29.83 "Hg4 mi
6:30 PM90 °FClear.13 mph46%29.83 "Hg4 mi
6:00 PM91 °FClear.15 mph41%29.80 "Hg4 mi
5:30 PM93 °FClear.15 mph41%29.80 "Hg4 mi
5:00 PM97 °FClear.14 mph37%29.80 "Hg4 mi
4:30 PM97 °FClear.14 mph32%29.83 "Hg4 mi
4:00 PM99 °FClear.12 mph31%29.83 "Hg4 mi
3:30 PM104 °FClear.10 mph15%29.83 "Hg4 mi
3:00 PM104 °FClear.13 mph15%29.83 "Hg4 mi
2:30 PM102 °FClear.13 mph16%29.83 "Hg4 mi
2:00 PM102 °FClear.14 mph17%29.86 "Hg4 mi
1:30 PM100 °FClear.13 mph18%29.86 "Hg4 mi
1:00 PM100 °FClear.15 mph18%29.89 "Hg4 mi
Weather by CustomWeather, © 2014

See weather overviewHow to use our weather pages